| time (UTC) | temp F | wind direction | speed knots | gust knots | rain 1hr in | rain 24hr in | rain mn in | humidity % | barometer mb |
| 20260507114507 | 42 | 357 | 0.0 | 0.0 | 0.00 | 0.00 | 0.00 | 88 | 1019.6 |
| 20260507114009 | 42 | 357 | 0.0 | 0.0 | 0.00 | 0.00 | 0.00 | 87 | 1019.7 |
| 20260507113511 | 42 | 357 | 0.0 | 0.0 | 0.00 | 0.00 | 0.00 | 87 | 1019.7 |
| 20260507113019 | 42 | 357 | 0.0 | 0.0 | 0.00 | 0.00 | 0.00 | 87 | 1019.6 |
| 20260507112512 | 42 | 357 | 0.0 | 0.0 | 0.00 | 0.00 | 0.00 | 87 | 1019.5 |
| 20260507112007 | 42 | 357 | 0.0 | 0.0 | 0.00 | 0.00 | 0.00 | 87 | 1019.5 |
| 20260507111506 | 42 | 357 | 0.0 | 0.0 | 0.00 | 0.00 | 0.00 | 87 | 1019.4 |
| 20260507111004 | 42 | 357 | 0.0 | 0.0 | 0.00 | 0.00 | 0.00 | 87 | 1019.6 |
| 20260507110504 | 42 | 357 | 0.0 | 0.0 | 0.00 | 0.00 | 0.00 | 87 | 1019.6 |
| 20260507110010 | 42 | 337 | 0.0 | 0.0 | 0.00 | 0.00 | 0.00 | 87 | 1019.3 |
| 20260507105503 | 42 | 337 | 0.0 | 0.0 | 0.00 | 0.00 | 0.00 | 87 | 1019.5 |
| 20260507105003 | 42 | 357 | 0.0 | 0.0 | 0.00 | 0.00 | 0.00 | 87 | 1019.4 |
| 20260507104503 | 42 | 357 | 0.0 | 0.0 | 0.00 | 0.00 | 0.00 | 87 | 1019.5 |
| 20260507104003 | 42 | 337 | 0.0 | 0.0 | 0.00 | 0.00 | 0.00 | 87 | 1019.4 |
| 20260507103503 | 42 | 337 | 0.0 | 0.0 | 0.00 | 0.00 | 0.00 | 86 | 1019.3 |
| 20260507103001 | 42 | 337 | 0.0 | 0.0 | 0.00 | 0.00 | 0.00 | 86 | 1019.2 |
| 20260507102501 | 42 | 337 | 0.0 | 0.0 | 0.00 | 0.00 | 0.00 | 86 | 1019.3 |
| 20260507102001 | 42 | 357 | 0.0 | 0.0 | 0.00 | 0.00 | 0.00 | 86 | 1019.4 |
| 20260507101507 | 43 | 357 | 0.0 | 0.0 | 0.00 | 0.00 | 0.00 | 86 | 1019.3 |
| 20260507101059 | 43 | 357 | 0.0 | 0.0 | 0.00 | 0.00 | 0.00 | 86 | 1019.3 |
| 20260507100559 | 43 | 336 | 0.0 | 0.0 | 0.00 | 0.00 | 0.00 | 86 | 1019.0 |
| 20260507100107 | 43 | 337 | 0.0 | 0.0 | 0.00 | 0.00 | 0.00 | 85 | 1019.0 |
| 20260507095559 | 43 | 337 | 0.0 | 0.0 | 0.00 | 0.00 | 0.00 | 85 | 1019.1 |
| 20260507095103 | 43 | 337 | 0.0 | 0.0 | 0.00 | 0.00 | 0.00 | 85 | 1019.0 |
| 20260507094559 | 43 | 337 | 0.0 | 0.0 | 0.00 | 0.00 | 0.00 | 85 | 1019.1 |
| 20260507094057 | 43 | 357 | 0.0 | 0.0 | 0.00 | 0.00 | 0.00 | 85 | 1019.0 |
| 20260507093556 | 43 | 338 | 0.0 | 0.0 | 0.00 | 0.00 | 0.00 | 85 | 1019.2 |
| 20260507093056 | 44 | 338 | 0.0 | 0.0 | 0.00 | 0.00 | 0.00 | 85 | 1019.3 |
| 20260507092556 | 44 | 337 | 0.0 | 0.9 | 0.00 | 0.00 | 0.00 | 85 | 1019.1 |
| 20260507092055 | 44 | 338 | 0.0 | 1.7 | 0.00 | 0.00 | 0.00 | 85 | 1018.9 |
| 20260507091555 | 44 | 337 | 0.0 | 1.7 | 0.00 | 0.00 | 0.00 | 85 | 1018.9 |
| 20260507091055 | 44 | 357 | 0.9 | 1.7 | 0.00 | 0.00 | 0.00 | 85 | 1018.9 |
| 20260507090555 | 44 | 337 | 0.0 | 0.0 | 0.00 | 0.00 | 0.00 | 85 | 1018.7 |
| 20260507090056 | 44 | 357 | 0.0 | 0.0 | 0.00 | 0.00 | 0.00 | 84 | 1018.7 |
| 20260507085553 | 44 | 357 | 0.0 | 0.0 | 0.00 | 0.00 | 0.00 | 84 | 1018.7 |
| 20260507085053 | 44 | 357 | 0.0 | 0.0 | 0.00 | 0.00 | 0.00 | 84 | 1018.7 |
| 20260507084600 | 44 | 357 | 0.0 | 0.0 | 0.00 | 0.00 | 0.00 | 84 | 1018.9 |
| 20260507084052 | 44 | 337 | 0.0 | 0.0 | 0.00 | 0.00 | 0.00 | 83 | 1018.9 |
| 20260507083552 | 44 | 337 | 0.0 | 0.0 | 0.00 | 0.00 | 0.00 | 83 | 1018.6 |
| 20260507083051 | 44 | 337 | 0.0 | 0.0 | 0.00 | 0.00 | 0.00 | 83 | 1018.8 |
| 20260507082551 | 44 | 337 | 0.0 | 0.0 | 0.00 | 0.00 | 0.00 | 83 | 1018.9 |
| 20260507082051 | 44 | 337 | 0.0 | 0.0 | 0.00 | 0.00 | 0.00 | 83 | 1018.9 |
| 20260507081550 | 44 | 337 | 0.0 | 0.0 | 0.00 | 0.00 | 0.00 | 83 | 1018.8 |
| 20260507081050 | 44 | 337 | 0.0 | 0.0 | 0.00 | 0.00 | 0.00 | 82 | 1018.8 |
| 20260507080551 | 45 | 337 | 0.0 | 0.0 | 0.00 | 0.00 | 0.00 | 82 | 1018.9 |
| 20260507080048 | 45 | 357 | 0.0 | 0.0 | 0.00 | 0.00 | 0.00 | 82 | 1018.9 |
| 20260507075547 | 45 | 357 | 0.0 | 0.0 | 0.00 | 0.00 | 0.00 | 82 | 1019.0 |
| 20260507075049 | 45 | 357 | 0.0 | 0.0 | 0.00 | 0.00 | 0.00 | 82 | 1019.1 |
| 20260507074549 | 45 | 357 | 0.0 | 0.0 | 0.00 | 0.00 | 0.00 | 81 | 1019.1 |
| 20260507074045 | 45 | 337 | 0.0 | 0.0 | 0.00 | 0.00 | 0.00 | 81 | 1019.2 |
| 20260507073550 | 45 | 337 | 0.0 | 0.0 | 0.00 | 0.00 | 0.00 | 81 | 1019.1 |
| 20260507073102 | 45 | 337 | 0.0 | 0.0 | 0.00 | 0.00 | 0.00 | 81 | 1019.1 |
| 20260507072544 | 45 | 337 | 0.0 | 0.0 | 0.00 | 0.00 | 0.00 | 81 | 1019.2 |
| 20260507072043 | 45 | 337 | 0.0 | 0.0 | 0.00 | 0.00 | 0.00 | 80 | 1019.1 |
| 20260507071543 | 45 | 337 | 0.0 | 0.0 | 0.00 | 0.00 | 0.00 | 80 | 1019.1 |
| 20260507071043 | 46 | 337 | 0.0 | 0.0 | 0.00 | 0.00 | 0.00 | 80 | 1019.0 |
| 20260507070543 | 46 | 337 | 0.0 | 0.0 | 0.00 | 0.00 | 0.00 | 80 | 1019.0 |
| 20260507070043 | 46 | 357 | 0.0 | 0.0 | 0.00 | 0.00 | 0.00 | 79 | 1018.9 |
| 20260507065540 | 46 | 357 | 0.0 | 0.0 | 0.00 | 0.00 | 0.00 | 79 | 1019.0 |
| 20260507065040 | 46 | 357 | 0.0 | 0.0 | 0.00 | 0.00 | 0.00 | 79 | 1019.0 |
| 20260507064546 | 46 | 337 | 0.0 | 0.0 | 0.00 | 0.00 | 0.00 | 79 | 1019.2 |
| 20260507064039 | 46 | 337 | 0.0 | 0.0 | 0.00 | 0.00 | 0.00 | 78 | 1019.2 |
| 20260507063536 | 47 | 357 | 0.0 | 0.9 | 0.00 | 0.00 | 0.00 | 78 | 1019.4 |
| 20260507063045 | 47 | 357 | 0.0 | 0.9 | 0.00 | 0.00 | 0.00 | 78 | 1019.4 |
| 20260507062535 | 47 | 357 | 0.0 | 0.9 | 0.00 | 0.00 | 0.00 | 77 | 1019.6 |
| 20260507062034 | 47 | 357 | 0.0 | 0.0 | 0.00 | 0.00 | 0.00 | 77 | 1019.5 |
| 20260507061538 | 47 | 357 | 0.0 | 0.9 | 0.00 | 0.00 | 0.00 | 77 | 1019.7 |
| 20260507061033 | 47 | 357 | 0.0 | 0.9 | 0.00 | 0.00 | 0.00 | 76 | 1019.7 |
| 20260507060532 | 48 | 357 | 0.0 | 0.9 | 0.00 | 0.00 | 0.00 | 76 | 1019.6 |
| 20260507060036 | 48 | 357 | 0.0 | 0.9 | 0.00 | 0.00 | 0.00 | 75 | 1019.5 |
| 20260507055532 | 48 | 357 | 0.0 | 0.0 | 0.00 | 0.00 | 0.00 | 75 | 1019.5 |
| 20260507055030 | 48 | 357 | 0.0 | 0.0 | 0.00 | 0.00 | 0.00 | 74 | 1019.6 |
| 20260507054528 | 49 | 357 | 0.0 | 0.9 | 0.00 | 0.00 | 0.00 | 74 | 1019.6 |
| 20260507054030 | 49 | 357 | 0.0 | 0.9 | 0.00 | 0.00 | 0.00 | 73 | 1019.8 |
| 20260507053527 | 49 | 357 | 0.0 | 0.0 | 0.00 | 0.00 | 0.00 | 72 | 1019.8 |
| 20260507053032 | 50 | 357 | 0.0 | 0.0 | 0.00 | 0.00 | 0.00 | 71 | 1019.8 |
| 20260507052523 | 50 | 357 | 0.0 | 0.0 | 0.00 | 0.00 | 0.00 | 71 | 1019.6 |
| 20260507052024 | 50 | 336 | 0.0 | 0.9 | 0.00 | 0.00 | 0.00 | 70 | 1019.5 |
| 20260507051521 | 51 | 357 | 0.0 | 0.9 | 0.00 | 0.00 | 0.00 | 70 | 1019.5 |
| 20260507051022 | 51 | 357 | 0.0 | 1.7 | 0.00 | 0.00 | 0.00 | 70 | 1019.5 |
| 20260507050518 | 51 | 336 | 0.0 | 1.7 | 0.00 | 0.00 | 0.00 | 69 | 1019.4 |
| 20260507050020 | 51 | 357 | 0.0 | 0.9 | 0.00 | 0.00 | 0.00 | 69 | 1019.4 |
| 20260507045518 | 52 | 337 | 0.0 | 1.7 | 0.00 | 0.00 | 0.00 | 68 | 1019.3 |
| 20260507045018 | 52 | 337 | 0.9 | 2.6 | 0.00 | 0.00 | 0.00 | 68 | 1019.4 |
| 20260507044518 | 52 | 357 | 0.9 | 2.6 | 0.00 | 0.00 | 0.00 | 67 | 1019.2 |
| 20260507044017 | 52 | 357 | 0.9 | 2.6 | 0.00 | 0.00 | 0.00 | 67 | 1019.1 |
| 20260507043516 | 52 | 357 | 1.7 | 3.5 | 0.00 | 0.00 | 0.00 | 67 | 1019.1 |
| 20260507043017 | 52 | 357 | 1.7 | 3.5 | 0.00 | 0.00 | 0.00 | 67 | 1019.0 |
| 20260507042515 | 52 | 58 | 0.9 | 3.5 | 0.00 | 0.00 | 0.00 | 68 | 1018.3 |
| 20260507042013 | 52 | 357 | 0.0 | 3.5 | 0.00 | 0.00 | 0.00 | 68 | 1018.2 |
| 20260507041515 | 52 | 54 | 0.0 | 1.7 | 0.00 | 0.00 | 0.00 | 67 | 1018.3 |
| 20260507041013 | 52 | 357 | 0.0 | 0.9 | 0.00 | 0.00 | 0.00 | 67 | 1018.3 |
| 20260507040513 | 52 | 357 | 0.0 | 0.9 | 0.00 | 0.00 | 0.00 | 67 | 1018.2 |
| 20260507040013 | 53 | 50 | 0.0 | 0.9 | 0.00 | 0.00 | 0.00 | 66 | 1018.3 |
| 20260507035513 | 53 | 49 | 0.0 | 0.9 | 0.00 | 0.00 | 0.00 | 65 | 1018.5 |
| 20260507035013 | 53 | 50 | 0.0 | 1.7 | 0.00 | 0.00 | 0.00 | 64 | 1018.6 |
| 20260507034514 | 54 | 50 | 0.0 | 1.7 | 0.00 | 0.00 | 0.00 | 64 | 1018.5 |
| 20260507034013 | 54 | 50 | 0.0 | 0.9 | 0.00 | 0.00 | 0.00 | 63 | 1018.5 |
| 20260507033516 | 54 | 50 | 0.0 | 1.7 | 0.00 | 0.00 | 0.00 | 63 | 1018.5 |
| 20260507033011 | 55 | 52 | 0.0 | 1.7 | 0.00 | 0.00 | 0.00 | 62 | 1018.4 |
| 20260507032510 | 55 | 49 | 0.0 | 0.9 | 0.00 | 0.00 | 0.00 | 61 | 1018.4 |
| 20260507032010 | 55 | 50 | 0.0 | 1.7 | 0.00 | 0.00 | 0.00 | 61 | 1018.3 |
| 20260507031510 | 55 | 52 | 0.0 | 2.6 | 0.00 | 0.00 | 0.00 | 61 | 1018.4 |
| 20260507031111 | 56 | 50 | 0.9 | 2.6 | 0.00 | 0.00 | 0.00 | 60 | 1018.3 |
| 20260507030553 | 56 | 54 | 0.0 | 2.6 | 0.00 | 0.00 | 0.00 | 60 | 1018.1 |
| 20260507030053 | 56 | 357 | 0.9 | 2.6 | 0.00 | 0.00 | 0.00 | 59 | 1018.0 |
| 20260507025553 | 56 | 52 | 0.0 | 2.6 | 0.00 | 0.00 | 0.00 | 59 | 1017.9 |
| 20260507025053 | 56 | 49 | 0.9 | 2.6 | 0.00 | 0.00 | 0.00 | 58 | 1017.8 |
| 20260507024600 | 57 | 357 | 0.0 | 3.5 | 0.00 | 0.00 | 0.00 | 58 | 1017.7 |
| 20260507024053 | 57 | 52 | 0.0 | 3.5 | 0.00 | 0.00 | 0.00 | 58 | 1017.9 |
| 20260507023553 | 57 | 357 | 0.9 | 3.5 | 0.00 | 0.00 | 0.00 | 57 | 1017.9 |
| 20260507023053 | 57 | 50 | 0.0 | 4.3 | 0.00 | 0.00 | 0.00 | 57 | 1017.8 |
| 20260507022552 | 58 | 61 | 0.9 | 4.3 | 0.00 | 0.00 | 0.00 | 57 | 1017.7 |
| 20260507022052 | 58 | 357 | 0.9 | 4.3 | 0.00 | 0.00 | 0.00 | 58 | 1017.7 |
| 20260507021601 | 58 | 357 | 1.7 | 4.3 | 0.00 | 0.00 | 0.00 | 57 | 1017.6 |
| 20260507021052 | 58 | 63 | 0.9 | 8.7 | 0.00 | 0.00 | 0.00 | 57 | 1017.7 |
| 20260507020551 | 58 | 357 | 2.6 | 8.7 | 0.00 | 0.00 | 0.00 | 57 | 1017.6 |
| 20260507020052 | 59 | 357 | 2.6 | 7.0 | 0.00 | 0.00 | 0.00 | 57 | 1017.5 |
| 20260507015551 | 59 | 27 | 1.7 | 5.2 | 0.00 | 0.00 | 0.00 | 56 | 1017.5 |
| 20260507015053 | 59 | 52 | 0.9 | 3.5 | 0.00 | 0.00 | 0.00 | 56 | 1017.4 |
| 20260507014553 | 59 | 357 | 1.7 | 4.3 | 0.00 | 0.00 | 0.00 | 56 | 1017.2 |
| 20260507014051 | 59 | 52 | 0.9 | 5.2 | 0.00 | 0.00 | 0.00 | 55 | 1017.1 |
| 20260507013550 | 60 | 357 | 1.7 | 5.2 | 0.00 | 0.00 | 0.00 | 54 | 1017.1 |
| 20260507013108 | 60 | 357 | 1.7 | 5.2 | 0.00 | 0.00 | 0.00 | 54 | 1017.2 |
| 20260507012550 | 60 | 357 | 0.9 | 5.2 | 0.00 | 0.00 | 0.00 | 54 | 1017.1 |
| 20260507012050 | 60 | 54 | 1.7 | 9.6 | 0.00 | 0.00 | 0.00 | 54 | 1017.0 |
| 20260507011550 | 60 | 357 | 3.5 | 9.6 | 0.00 | 0.00 | 0.00 | 53 | 1016.9 |
| 20260507011049 | 61 | 357 | 2.6 | 5.2 | 0.00 | 0.00 | 0.00 | 53 | 1016.9 |
| 20260507010548 | 61 | 41 | 1.7 | 5.2 | 0.00 | 0.00 | 0.00 | 53 | 1016.9 |
| 20260507010052 | 61 | 46 | 1.7 | 7.8 | 0.00 | 0.00 | 0.00 | 53 | 1017.0 |
| 20260507005551 | 61 | 357 | 2.6 | 7.8 | 0.00 | 0.00 | 0.00 | 52 | 1017.0 |
| 20260507005049 | 61 | 357 | 2.6 | 7.0 | 0.00 | 0.00 | 0.00 | 52 | 1016.9 |
| 20260507004548 | 61 | 357 | 2.6 | 7.8 | 0.00 | 0.00 | 0.00 | 52 | 1016.9 |
| 20260507004048 | 61 | 357 | 1.7 | 7.8 | 0.00 | 0.00 | 0.00 | 52 | 1016.8 |
| 20260507003548 | 62 | 64 | 3.5 | 10.4 | 0.00 | 0.00 | 0.00 | 52 | 1016.8 |
| 20260507003046 | 62 | 357 | 2.6 | 10.4 | 0.00 | 0.00 | 0.00 | 52 | 1016.8 |
| 20260507002546 | 62 | 357 | 2.6 | 5.2 | 0.00 | 0.00 | 0.00 | 51 | 1016.8 |
| 20260507002047 | 62 | 357 | 1.7 | 7.0 | 0.00 | 0.00 | 0.00 | 50 | 1016.5 |
| 20260507001605 | 63 | 357 | 2.6 | 7.8 | 0.00 | 0.00 | 0.00 | 50 | 1016.6 |
| 20260507001045 | 63 | 357 | 1.7 | 7.8 | 0.00 | 0.00 | 0.00 | 50 | 1016.5 |
| 20260507000545 | 63 | 59 | 2.6 | 7.0 | 0.00 | 0.00 | 0.00 | 50 | 1016.5 |
| 20260507000044 | 63 | 357 | 2.6 | 12.2 | 0.00 | 0.00 | 0.00 | 50 | 1016.5 |
| 20260506235545 | 63 | 357 | 3.5 | 12.2 | 0.00 | 0.00 | 0.00 | 51 | 1016.5 |
| 20260506235045 | 63 | 357 | 3.5 | 9.6 | 0.00 | 0.00 | 0.00 | 49 | 1016.5 |
| 20260506234555 | 64 | 357 | 3.5 | 8.7 | 0.00 | 0.00 | 0.00 | 49 | 1016.4 |
| 20260506234043 | 64 | 357 | 2.6 | 10.4 | 0.00 | 0.00 | 0.00 | 49 | 1016.4 |
| 20260506233544 | 64 | 357 | 3.5 | 10.4 | 0.00 | 0.00 | 0.00 | 49 | 1016.4 |
| 20260506233044 | 64 | 73 | 0.9 | 5.2 | 0.00 | 0.00 | 0.00 | 50 | 1016.2 |
| 20260506232545 | 64 | 64 | 1.7 | 5.2 | 0.00 | 0.00 | 0.00 | 49 | 1016.2 |
| 20260506232044 | 65 | 66 | 1.7 | 7.0 | 0.00 | 0.00 | 0.00 | 50 | 1016.2 |
| 20260506231542 | 65 | 24 | 1.7 | 7.0 | 0.00 | 0.00 | 0.00 | 50 | 1016.2 |
| 20260506231042 | 65 | 97 | 2.6 | 7.8 | 0.00 | 0.00 | 0.00 | 50 | 1016.1 |
| 20260506230542 | 65 | 61 | 1.7 | 8.7 | 0.00 | 0.00 | 0.00 | 51 | 1016.1 |
| 20260506230042 | 65 | 101 | 1.7 | 8.7 | 0.00 | 0.00 | 0.00 | 49 | 1016.1 |
| 20260506225546 | 65 | 82 | 1.7 | 7.8 | 0.00 | 0.00 | 0.00 | 49 | 1016.1 |
| 20260506225041 | 65 | 357 | 1.7 | 8.7 | 0.00 | 0.00 | 0.00 | 49 | 1016.0 |
| 20260506224549 | 65 | 76 | 2.6 | 10.4 | 0.00 | 0.00 | 0.00 | 50 | 1016.0 |
| 20260506224040 | 65 | 56 | 4.3 | 10.4 | 0.00 | 0.00 | 0.00 | 51 | 1016.0 |
| 20260506223540 | 65 | 80 | 1.7 | 6.1 | 0.00 | 0.00 | 0.00 | 50 | 1015.8 |
| 20260506223038 | 65 | 357 | 2.6 | 10.4 | 0.00 | 0.00 | 0.00 | 51 | 1015.7 |
| 20260506222541 | 64 | 357 | 3.5 | 10.4 | 0.00 | 0.00 | 0.00 | 50 | 1015.6 |
| 20260506222036 | 64 | 46 | 2.6 | 8.7 | 0.00 | 0.00 | 0.00 | 52 | 1015.8 |
| 20260506221536 | 64 | 357 | 3.5 | 9.6 | 0.00 | 0.00 | 0.00 | 53 | 1015.7 |
| 20260506221036 | 63 | 66 | 1.7 | 9.6 | 0.00 | 0.00 | 0.00 | 53 | 1015.7 |
| 20260506220534 | 63 | 357 | 2.6 | 9.6 | 0.00 | 0.00 | 0.00 | 54 | 1015.6 |
| 20260506220044 | 62 | 357 | 3.5 | 9.6 | 0.00 | 0.00 | 0.00 | 53 | 1015.6 |
| 20260506215534 | 63 | 127 | 1.7 | 8.7 | 0.00 | 0.00 | 0.00 | 53 | 1015.7 |
| 20260506215034 | 63 | 76 | 2.6 | 9.6 | 0.00 | 0.00 | 0.00 | 53 | 1015.8 |
| 20260506214535 | 63 | 357 | 2.6 | 9.6 | 0.00 | 0.00 | 0.00 | 53 | 1015.8 |
| 20260506214033 | 62 | 74 | 1.7 | 9.6 | 0.00 | 0.00 | 0.00 | 55 | 1015.9 |
| 20260506213532 | 62 | 41 | 2.6 | 7.8 | 0.00 | 0.00 | 0.00 | 56 | 1015.9 |
| 20260506213031 | 62 | 43 | 3.5 | 7.8 | 0.00 | 0.00 | 0.00 | 54 | 1015.9 |
| 20260506212531 | 62 | 357 | 3.5 | 11.3 | 0.00 | 0.00 | 0.00 | 54 | 1015.9 |
| 20260506212031 | 62 | 58 | 1.7 | 11.3 | 0.00 | 0.00 | 0.00 | 56 | 1016.0 |
| 20260506211531 | 62 | 95 | 1.7 | 9.6 | 0.00 | 0.00 | 0.00 | 55 | 1016.1 |
| 20260506211031 | 62 | 357 | 4.3 | 9.6 | 0.00 | 0.00 | 0.00 | 55 | 1016.1 |
| 20260506210531 | 62 | 357 | 5.2 | 9.6 | 0.00 | 0.00 | 0.00 | 54 | 1016.3 |
| 20260506210030 | 62 | 2 | 3.5 | 12.2 | 0.00 | 0.00 | 0.00 | 55 | 1016.3 |
| 20260506205530 | 61 | 19 | 3.5 | 12.2 | 0.00 | 0.00 | 0.00 | 56 | 1016.2 |
| 20260506205029 | 61 | 357 | 2.6 | 12.2 | 0.00 | 0.00 | 0.00 | 55 | 1016.2 |
| 20260506204536 | 61 | 39 | 5.2 | 10.4 | 0.00 | 0.00 | 0.00 | 56 | 1016.4 |
| 20260506204033 | 60 | 334 | 2.6 | 8.7 | 0.00 | 0.00 | 0.00 | 56 | 1016.3 |
| 20260506203529 | 61 | 37 | 4.3 | 9.6 | 0.00 | 0.00 | 0.00 | 55 | 1016.5 |
| 20260506203028 | 61 | 357 | 3.5 | 12.2 | 0.00 | 0.00 | 0.00 | 57 | 1016.6 |
| 20260506202528 | 61 | 357 | 4.3 | 12.2 | 0.00 | 0.00 | 0.00 | 56 | 1016.5 |
| 20260506202028 | 61 | 357 | 5.2 | 13.0 | 0.00 | 0.00 | 0.00 | 56 | 1016.5 |
| 20260506201528 | 61 | 47 | 4.3 | 13.0 | 0.00 | 0.00 | 0.00 | 56 | 1016.5 |
| 20260506201028 | 61 | 29 | 4.3 | 9.6 | 0.00 | 0.00 | 0.00 | 56 | 1016.5 |
| 20260506200531 | 61 | 31 | 3.5 | 9.6 | 0.00 | 0.00 | 0.00 | 56 | 1016.5 |
| 20260506200028 | 61 | 357 | 5.2 | 9.6 | 0.00 | 0.00 | 0.00 | 55 | 1016.5 |
| 20260506195531 | 61 | 51 | 1.7 | 10.4 | 0.00 | 0.00 | 0.00 | 56 | 1016.5 |
| 20260506195027 | 62 | 357 | 3.5 | 8.7 | 0.00 | 0.00 | 0.00 | 55 | 1016.5 |
| 20260506194534 | 62 | 357 | 4.3 | 8.7 | 0.00 | 0.00 | 0.00 | 54 | 1016.5 |
| 20260506194029 | 62 | 357 | 3.5 | 9.6 | 0.00 | 0.00 | 0.00 | 54 | 1016.5 |
| 20260506193528 | 62 | 65 | 4.3 | 10.4 | 0.00 | 0.00 | 0.00 | 54 | 1016.3 |
| 20260506193026 | 62 | 357 | 3.5 | 12.2 | 0.00 | 0.00 | 0.00 | 52 | 1016.5 |
| 20260506192525 | 63 | 75 | 4.3 | 12.2 | 0.00 | 0.00 | 0.00 | 53 | 1016.4 |
| 20260506192024 | 62 | 83 | 2.6 | 8.7 | 0.00 | 0.00 | 0.00 | 54 | 1016.4 |
| 20260506191524 | 62 | 357 | 3.5 | 8.7 | 0.00 | 0.00 | 0.00 | 55 | 1016.7 |
| 20260506191023 | 62 | 47 | 2.6 | 12.2 | 0.00 | 0.00 | 0.00 | 54 | 1016.8 |
| 20260506190523 | 62 | 129 | 4.3 | 12.2 | 0.00 | 0.00 | 0.00 | 53 | 1016.6 |
| 20260506190023 | 62 | 60 | 5.2 | 11.3 | 0.00 | 0.00 | 0.00 | 53 | 1016.7 |
| 20260506185524 | 62 | 111 | 2.6 | 9.6 | 0.00 | 0.00 | 0.00 | 55 | 1016.7 |
| 20260506185022 | 62 | 60 | 2.6 | 8.7 | 0.00 | 0.00 | 0.00 | 53 | 1016.7 |
| 20260506184527 | 62 | 43 | 3.5 | 8.7 | 0.00 | 0.00 | 0.00 | 53 | 1016.8 |
| 20260506184022 | 62 | 16 | 3.5 | 8.7 | 0.00 | 0.00 | 0.00 | 53 | 1016.9 |
| 20260506183521 | 62 | 60 | 2.6 | 9.6 | 0.00 | 0.00 | 0.00 | 54 | 1016.9 |
| 20260506183020 | 62 | 152 | 2.6 | 9.6 | 0.00 | 0.00 | 0.00 | 53 | 1017.0 |
| 20260506182518 | 61 | 77 | 2.6 | 9.6 | 0.00 | 0.00 | 0.00 | 55 | 1016.8 |
| 20260506182023 | 61 | 101 | 2.6 | 8.7 | 0.00 | 0.00 | 0.00 | 55 | 1017.0 |
| 20260506181518 | 61 | 26 | 3.5 | 8.7 | 0.00 | 0.00 | 0.00 | 53 | 1017.0 |
| 20260506181017 | 61 | 78 | 1.7 | 12.2 | 0.00 | 0.00 | 0.00 | 54 | 1017.1 |
| 20260506180516 | 60 | 61 | 3.5 | 12.2 | 0.00 | 0.00 | 0.00 | 55 | 1017.3 |
| 20260506180016 | 60 | 98 | 2.6 | 7.8 | 0.00 | 0.00 | 0.00 | 55 | 1017.4 |
| 20260506175516 | 60 | 125 | 3.5 | 10.4 | 0.00 | 0.00 | 0.00 | 54 | 1017.4 |
| 20260506175017 | 60 | 89 | 2.6 | 11.3 | 0.00 | 0.00 | 0.00 | 54 | 1017.6 |
| 20260506174517 | 60 | 104 | 5.2 | 11.3 | 0.00 | 0.00 | 0.00 | 53 | 1017.6 |
| 20260506174014 | 60 | 40 | 2.6 | 11.3 | 0.00 | 0.00 | 0.00 | 55 | 1017.7 |
| 20260506173513 | 59 | 139 | 2.6 | 11.3 | 0.00 | 0.00 | 0.00 | 56 | 1017.6 |
| 20260506173012 | 60 | 104 | 6.1 | 12.2 | 0.00 | 0.00 | 0.00 | 53 | 1017.5 |
| 20260506172511 | 59 | 81 | 2.6 | 10.4 | 0.00 | 0.00 | 0.00 | 55 | 1017.5 |
| 20260506172010 | 59 | 83 | 2.6 | 11.3 | 0.00 | 0.00 | 0.00 | 56 | 1017.7 |
| 20260506171508 | 59 | 37 | 5.2 | 11.3 | 0.00 | 0.00 | 0.00 | 55 | 1017.6 |
| 20260506171011 | 58 | 81 | 4.3 | 9.6 | 0.00 | 0.00 | 0.00 | 55 | 1017.6 |
| 20260506170507 | 58 | 85 | 4.3 | 9.6 | 0.00 | 0.00 | 0.00 | 56 | 1017.5 |
| 20260506170039 | 58 | 102 | 5.2 | 10.4 | 0.00 | 0.00 | 0.00 | 55 | 1017.7 |
| 20260506165537 | 58 | 95 | 2.6 | 10.4 | 0.00 | 0.00 | 0.00 | 58 | 1017.7 |
| 20260506165036 | 58 | 92 | 3.5 | 10.4 | 0.00 | 0.00 | 0.00 | 58 | 1017.8 |
| 20260506164535 | 57 | 62 | 3.5 | 10.4 | 0.00 | 0.00 | 0.00 | 58 | 1017.7 |
| 20260506164034 | 57 | 357 | 3.5 | 9.6 | 0.00 | 0.00 | 0.00 | 58 | 1017.9 |
| 20260506163535 | 56 | 84 | 1.7 | 6.1 | 0.00 | 0.00 | 0.00 | 60 | 1017.9 |
| 20260506163031 | 56 | 89 | 1.7 | 8.7 | 0.00 | 0.00 | 0.00 | 62 | 1018.0 |
| 20260506162529 | 55 | 46 | 3.5 | 10.4 | 0.00 | 0.00 | 0.00 | 62 | 1018.1 |
| 20260506162032 | 55 | 357 | 2.6 | 13.0 | 0.00 | 0.00 | 0.00 | 62 | 1018.0 |
| 20260506161529 | 55 | 15 | 2.6 | 10.4 | 0.00 | 0.00 | 0.00 | 62 | 1018.1 |
| 20260506161031 | 55 | 95 | 4.3 | 10.4 | 0.00 | 0.00 | 0.00 | 63 | 1018.1 |
| 20260506160531 | 55 | 71 | 3.5 | 13.9 | 0.00 | 0.00 | 0.00 | 63 | 1017.9 |
| 20260506160036 | 55 | 116 | 3.5 | 13.9 | 0.00 | 0.00 | 0.00 | 64 | 1017.9 |
| 20260506155525 | 55 | 105 | 3.5 | 10.4 | 0.00 | 0.00 | 0.00 | 67 | 1017.9 |
| 20260506155024 | 54 | 125 | 2.6 | 9.6 | 0.00 | 0.00 | 0.00 | 68 | 1017.8 |
| 20260506154524 | 54 | 93 | 2.6 | 11.3 | 0.00 | 0.00 | 0.00 | 67 | 1017.6 |
| 20260506154022 | 53 | 31 | 1.7 | 11.3 | 0.00 | 0.00 | 0.00 | 68 | 1017.8 |
| 20260506153522 | 53 | 59 | 4.3 | 13.0 | 0.00 | 0.00 | 0.00 | 68 | 1017.8 |
| 20260506153020 | 53 | 89 | 3.5 | 13.0 | 0.00 | 0.00 | 0.00 | 69 | 1017.6 |
| 20260506152518 | 53 | 112 | 5.2 | 11.3 | 0.00 | 0.00 | 0.00 | 70 | 1017.6 |
| 20260506152055 | 53 | 357 | 3.5 | 12.2 | 0.00 | 0.00 | 0.00 | 71 | 1017.5 |
| 20260506151554 | 52 | 73 | 5.2 | 13.0 | 0.00 | 0.00 | 0.00 | 71 | 1017.4 |
| 20260506151052 | 52 | 357 | 3.5 | 13.0 | 0.00 | 0.00 | 0.00 | 71 | 1017.4 |
| 20260506150553 | 52 | 93 | 2.6 | 9.6 | 0.00 | 0.00 | 0.00 | 72 | 1017.2 |
| 20260506150051 | 52 | 37 | 2.6 | 10.4 | 0.00 | 0.00 | 0.00 | 72 | 1017.2 |
| 20260506145548 | 52 | 85 | 3.5 | 10.4 | 0.00 | 0.00 | 0.00 | 72 | 1017.1 |
| 20260506145047 | 51 | 357 | 2.6 | 13.9 | 0.00 | 0.00 | 0.00 | 73 | 1017.0 |
| 20260506144550 | 51 | 74 | 4.3 | 13.9 | 0.00 | 0.00 | 0.00 | 72 | 1016.9 |
| 20260506144045 | 51 | 50 | 3.5 | 12.2 | 0.00 | 0.00 | 0.00 | 73 | 1016.8 |
| 20260506143545 | 51 | 357 | 5.2 | 11.3 | 0.00 | 0.00 | 0.00 | 74 | 1016.6 |
| 20260506143042 | 50 | 50 | 2.6 | 12.2 | 0.00 | 0.00 | 0.00 | 75 | 1016.6 |
| 20260506142542 | 50 | 47 | 1.7 | 12.2 | 0.00 | 0.00 | 0.00 | 75 | 1016.7 |
| 20260506142045 | 49 | 44 | 2.6 | 13.0 | 0.00 | 0.00 | 0.00 | 76 | 1016.7 |
| 20260506141539 | 49 | 357 | 3.5 | 13.0 | 0.00 | 0.00 | 0.00 | 77 | 1016.7 |
| 20260506141038 | 49 | 60 | 3.5 | 10.4 | 0.00 | 0.00 | 0.00 | 77 | 1016.7 |
| 20260506140538 | 49 | 357 | 4.3 | 10.4 | 0.00 | 0.00 | 0.00 | 77 | 1016.9 |
| 20260506140038 | 49 | 357 | 4.3 | 10.4 | 0.00 | 0.00 | 0.00 | 77 | 1016.8 |
| 20260506135537 | 49 | 39 | 4.3 | 11.3 | 0.00 | 0.00 | 0.00 | 78 | 1016.9 |
| 20260506135037 | 48 | 357 | 4.3 | 13.0 | 0.00 | 0.00 | 0.00 | 77 | 1016.8 |
| 20260506134536 | 48 | 64 | 6.1 | 15.6 | 0.00 | 0.00 | 0.00 | 78 | 1016.9 |
| 20260506134037 | 48 | 43 | 6.1 | 15.6 | 0.00 | 0.00 | 0.00 | 78 | 1016.9 |
| 20260506133536 | 48 | 62 | 3.5 | 8.7 | 0.00 | 0.00 | 0.00 | 78 | 1016.9 |
| 20260506133034 | 48 | 10 | 3.5 | 13.9 | 0.00 | 0.00 | 0.00 | 78 | 1016.8 |
| 20260506132534 | 48 | 43 | 4.3 | 13.9 | 0.00 | 0.00 | 0.00 | 79 | 1016.7 |
| 20260506132037 | 48 | 80 | 1.7 | 13.0 | 0.00 | 0.00 | 0.00 | 79 | 1016.7 |
| 20260506131545 | 48 | 357 | 3.5 | 13.0 | 0.00 | 0.00 | 0.00 | 79 | 1016.7 |
| 20260506131032 | 48 | 357 | 4.3 | 13.0 | 0.00 | 0.00 | 0.00 | 80 | 1016.6 |
| 20260506130633 | 48 | 81 | 4.3 | 13.0 | 0.00 | 0.00 | 0.00 | 80 | 1016.5 |
| 20260506130038 | 48 | 81 | 6.1 | 13.0 | 0.00 | 0.00 | 0.00 | 80 | 1016.5 |
| 20260506125530 | 47 | 357 | 5.2 | 10.4 | 0.00 | 0.00 | 0.00 | 80 | 1016.2 |
| 20260506125029 | 47 | 71 | 4.3 | 10.4 | 0.00 | 0.00 | 0.00 | 80 | 1016.1 |
| 20260506124531 | 47 | 27 | 2.6 | 11.3 | 0.00 | 0.00 | 0.00 | 80 | 1016.5 |
| 20260506124029 | 47 | 81 | 2.6 | 11.3 | 0.00 | 0.00 | 0.00 | 80 | 1016.4 |
| 20260506123531 | 47 | 357 | 1.7 | 9.6 | 0.00 | 0.00 | 0.00 | 80 | 1016.3 |
| 20260506123029 | 47 | 357 | 2.6 | 9.6 | 0.00 | 0.00 | 0.00 | 79 | 1016.2 |
| 20260506122526 | 47 | 357 | 3.5 | 9.6 | 0.00 | 0.00 | 0.00 | 79 | 1015.7 |
| 20260506122025 | 47 | 46 | 1.7 | 11.3 | 0.00 | 0.00 | 0.00 | 79 | 1015.6 |
| 20260506121525 | 47 | 46 | 2.6 | 10.4 | 0.00 | 0.00 | 0.00 | 79 | 1015.8 |
| 20260506121027 | 47 | 35 | 1.7 | 10.4 | 0.00 | 0.00 | 0.00 | 79 | 1015.5 |
| 20260506120527 | 47 | 357 | 2.6 | 9.6 | 0.00 | 0.00 | 0.00 | 79 | 1015.6 |
| 20260506120025 | 47 | 357 | 3.5 | 9.6 | 0.00 | 0.00 | 0.00 | 79 | 1015.4 |
| 20260506115525 | 47 | 72 | 3.5 | 9.6 | 0.00 | 0.00 | 0.00 | 79 | 1015.3 |
| 20260506115023 | 47 | 357 | 2.6 | 5.2 | 0.00 | 0.00 | 0.00 | 79 | 1015.4 |